Find Starlink 32876

NORAD ID: 63151 Int'l Des: 2025-043 Owner: SPXS Country: US Constellation: starlink operational
LEOCIRCULAR

实时位置

正在加载3D地球...

关于 Starlink 32876

正在加载描述...

即将过境

Passes for default location (London). Set your location on the main map for personalized predictions.

高度历史

Loading altitude history...

两行轨道根数

1 63151U 25043V 26126.13859355 .00014291 00000-0 52756-3 0 9991
2 63151 42.9998 51.3337 0001393 259.0417 101.0277 15.27597500 66152
Epoch: May 6, 2026 • Age: 8 hours

当前状态

高度 482.7 km
速度 7.63 km/s
星下点 20.13°N, 164.59°E
发射日期 Mar 3, 2025
运行时间 1.1 years
类型 internet

技术详情

分类 Payload
质量 730.00 kg
干质量 700.00 kg
总质量 730.00 kg
长度 0.30 m
直径 4.10 m
跨度 29.00 m
形状 Box + pan
制造商 SPXS
平台类型 Starlink V2M
阶段状态 In Orbit
所有者/国家 SPXS/US

Most Searched